EWS-G2 (GOES 15)

Last updated on Thu Jul 03 2025 00:02:22 GMT+0000 (Coordinated Universal Time)

1 36411U 10008A 25183.55530961 .00000046 00000+0 00000+0 0 9995 2 36411 0.3744 85.3698 0002828 109.1319 347.4987 1.00272382 56130
UTC large
Height (km)
Speed (km/s)
/
Latitude / Longitude
Inclination (degrees)
Orbital Period (minutes)
Azimuth
Elevation
Range (km)
Doppler Factor

Next 0 passes for location: London (51.5072 / 0.1276)

Sorry there are no passes over London.